Tallahassee, FL

2:49 PM EST on February 14, 2016 (GMT -0500)
Tallahassee Regional

Weather History for KTLH - May, 2012

Change the Weather History Date:

Monday, May 28, 2012

  Actual Average Record
Temperature  
Mean Temperature 82 °F 78 °F  
Max Temperature 89 °F 89 °F 100 °F (2000)
Min Temperature 75 °F 66 °F 47 °F (1988)
Degree Days  
Heating Degree Days 0    
Month to date heating degree days 0  
Since 1 July heating degree days 1055  
Cooling Degree Days 17    
Month to date cooling degree days 352  
Year to date cooling degree days 722  
Growing Degree Days 32 (Base 50)    
Moisture  
Dew Point 67 °F    
Average Humidity 68    
Maximum Humidity 85    
Minimum Humidity 50    
Precipitation  
Precipitation 0.18 in 0.16 in 2.00 in (1919)
Month to date precipitation 4.23 2.98  
Year to date precipitation 16.85 21.17  
Sea Level Pressure  
Sea Level Pressure 29.81 in    
Wind  
Wind Speed 11 mph (NW)    
Max Wind Speed 23 mph    
Max Gust Speed 29 mph    
Visibility 9 miles    
Events Rain    
T = Trace of Precipitation, MM = Missing Value Source: NWS Daily Summary

Daily Weather History Graph

Daily Weather History Graph

Search for Another Location

Airport or City:

Trip Planner

Search our weather history database for the weather conditions in past years. The results will help you decide how hot, cold, wet, or windy it might be!

Date:

Astronomy

May. 28, 2012 Rise Set
Actual Time 6:36 AM EDT 8:32 PM EDT
Civil Twilight 6:09 AM EDT 9:00 PM EDT
Nautical Twilight 5:37 AM EDT 9:32 PM EDT
Astronomical Twilight 5:02 AM EDT 10:07 PM EDT
Moon 1:26 PM EDT (5/28) 1:27 AM EDT (5/28)
Length of Visible Light 14h 50m
Length of Day
13h 56m
Waxing Crescent, 48% of the Moon is Illuminated
May 28
Waxing Crescent
May 28
First Quarter
Jun 4
Full
Jun 11
Last Quarter
Jun 19
New

Hourly Weather History & Observations

Time (EDT) Temp. Heat Index Dew Point Humidity Pressure Visibility Wind Dir Wind Speed Gust Speed Precip Events Conditions
12:53 AM 81.0 °F 82.2 °F 63.0 °F 54% 29.88 in 10.0 mi North 4.6 mph - N/A   Clear
1:53 AM 79.0 °F - 64.0 °F 60% 29.86 in 10.0 mi NNW 5.8 mph - N/A   Clear
2:53 AM 75.9 °F - 64.0 °F 67% 29.85 in 10.0 mi NW 5.8 mph - N/A   Clear
3:53 AM 77.0 °F - 64.0 °F 64% 29.83 in 10.0 mi NNW 8.1 mph - N/A   Clear
4:53 AM 77.0 °F - 64.0 °F 64% 29.82 in 10.0 mi NNW 8.1 mph - N/A   Overcast
5:53 AM 75.9 °F - 64.0 °F 67% 29.82 in 10.0 mi NNW 11.5 mph - N/A   Partly Cloudy
6:53 AM 75.9 °F - 64.0 °F 67% 29.84 in 10.0 mi NNW 9.2 mph - N/A   Partly Cloudy
7:53 AM 77.0 °F - 64.9 °F 66% 29.84 in 10.0 mi NW 11.5 mph - N/A   Clear
8:53 AM 79.0 °F - 66.0 °F 64% 29.84 in 10.0 mi NNW 12.7 mph 19.6 mph N/A   Clear
9:53 AM 82.9 °F 85.0 °F 66.0 °F 56% 29.84 in 10.0 mi North 12.7 mph 20.7 mph N/A   Mostly Cloudy
10:53 AM 82.9 °F 85.0 °F 66.0 °F 56% 29.84 in 10.0 mi NNW 15.0 mph 20.7 mph N/A   Overcast
11:53 AM 84.9 °F 87.1 °F 66.0 °F 53% 29.83 in 10.0 mi NNW 16.1 mph 24.2 mph N/A   Overcast
12:53 PM 84.0 °F 86.3 °F 66.0 °F 55% 29.81 in 10.0 mi NW 13.8 mph 24.2 mph N/A   Overcast
1:53 PM 87.1 °F 89.2 °F 66.0 °F 49% 29.79 in 10.0 mi NW 23.0 mph 27.6 mph N/A   Overcast
2:53 PM 75.9 °F - 71.1 °F 85% 29.80 in 1.0 mi NNE 10.4 mph 21.9 mph 0.10 in Rain Heavy Rain
3:14 PM 75.2 °F - 71.6 °F 89% 29.80 in 3.0 mi NNW 10.4 mph - 0.07 in Rain Rain
3:53 PM 79.0 °F - 73.0 °F 82% 29.78 in 8.0 mi NW 9.2 mph - 0.07 in Rain Light Rain
4:53 PM 82.0 °F 86.7 °F 72.0 °F 71% 29.76 in 10.0 mi NW 12.7 mph - 0.01 in   Mostly Cloudy
5:53 PM 82.9 °F 86.5 °F 69.1 °F 63% 29.76 in 10.0 mi NNW 16.1 mph 25.3 mph N/A   Mostly Cloudy
6:53 PM 84.0 °F 87.8 °F 69.1 °F 61% 29.76 in 10.0 mi NW 10.4 mph - N/A   Mostly Cloudy
7:53 PM 78.1 °F - 71.1 °F 79% 29.78 in 10.0 mi NW 11.5 mph 19.6 mph 0.00 in Rain Light Rain
8:53 PM 77.0 °F - 70.0 °F 79% 29.77 in 10.0 mi NW 12.7 mph - 0.00 in   Mostly Cloudy
9:53 PM 77.0 °F - 69.1 °F 76% 29.78 in 10.0 mi WNW 8.1 mph - N/A   Scattered Clouds
10:53 PM 77.0 °F - 69.1 °F 76% 29.80 in 10.0 mi NW 8.1 mph - N/A   Mostly Cloudy
11:53 PM 75.9 °F - 70.0 °F 82% 29.79 in 10.0 mi West 5.8 mph - N/A   Mostly Cloudy